Location: Maiden
(35.5760°N, 81.2120°W)
Time: 15:51:50
(UTC-04:00)

MetOp-B - Pass Details

Date: 14 June 2018
Orbit: 820 x 821 km, 98.7° (Epoch: 14 October)

Event Time Altitude Azimuth Distance (km) Brightness Sun altitude
Exits shadow 22:28:08 25° 170° (S) 1,608 5.2 -17.7°
Maximum altitude 22:31:23 83° 256° (WSW) 830 4.1 -18.2°
Drops below altitude 10° 22:36:45 10° 345° (NNW) 2,421 7.5 -18.9°
Sets 22:39:07 0° 347° (NNW) 3,357 8.4 -19.2°
